Preview of NWS' New Version of Forecast
This preview is not operational and should not be used for support decisions.

Regional Weather Roundup (RWR)

Issued by National Weather Service (NWS)

                            
798 
ASCA42 TJSJ 260510
RWRPR 
PUERTO RICO/U.S. VIRGIN ISLANDS HOURLY WEATHER ROUNDUP
NATIONAL WEATHER SERVICE SAN JUAN PR
100 AM AST TUE MAR 26 2019

PRZ001>002-007>008-010-260600-
PUERTO RICO
  
CITY           SKY/WX    TMP DP  RH WIND       PRES   REMARKS
SAN JUAN LMM   PTCLDY    77  68  73 CALM      30.00F                  
CEIBA          CLEAR     75  70  83 SE6       30.02F                  
$$

VIZ001>002-260600-
U.S. VIRGIN ISLANDS
  
CITY           SKY/WX    TMP DP  RH WIND       PRES   REMARKS
CHARLOTTE AMA  CLEAR     79  70  73 E14G22    29.99F                  
$$

HOURLY WEATHER ROUNDUP FOR THE NEWS MEDIA
  
CITY           SKY/WX    TMP DP  RH WIND       PRES   REMARKS
ORLANDO        FAIR      68  62  81 W6        30.05S                  
NEW YORK       MOCLDY    43   6  21 N17       30.12R                  
NEWARK         MOCLDY    43   0  16 N16       30.12R                  
CHICAGO        FAIR      27  19  72 N7        30.38R WCI  19          
HARTFORD       FAIR      32  31  96 CALM      30.09R                  
BOSTON         FAIR      36  26  67 S3        30.11R                  
DALLAS         CLEAR     60  48  64 N6        30.27R                  
PHILADELPHIA   CLOUDY    41  34  76 N9        30.11S                  
LOS ANGELES    CLEAR     58  50  75 SW8       30.07R                  
WASHINGTON DC  CLOUDY    42  36  79 N12       30.10R